Погода Рудня

Погода Рудня : погода сейчас, прогноз погоды и архив. Всё, что Вы хотите узнать о погоде Рудня!

Поиск расширенной информации на нашем сайте:

Другие новости

Новости СМИ2

Главная страница сайта

Новости сайта

02.10.2013

Напоминаем, что на нашем новом сайте вы можете получить высокодетализированные прогнозы погоды по пунктам России, СНГ и мира (включающие важные для авиации метеовеличины, такие как направление и скорость ветра, видимость, явления погоды, количество и форма облачности, нижняя и верхняя граница облачности), а также ознакомиться с разнообразными материалами по авиационной метеорологии и подборкой полезных ссылок на эту тему.

Сайт Метеоцентр.Азия посвящён разработке технологий оптимизации авиаметеорологического обслуживания, включая проектирование и перспективное создание нескольких автоматизированных авиаметеорологических систем:
- система выпуска высокодетальных прогностических карт явлений погоды для нижнего воздушного пространства по России и ближнему зарубежью;
- система верификации прогнозов TAF (выпускаемых синоптиками официальных АМСГ РФ и ближнего зарубежья) и AUTOTAF (выпускаемых сайтом Метеоцентр.Азия) - выявление ошибок, онлайн-сопоставление с фактической погодой METAR, автоматическое внесение коррективов в прогнозы при резком отклонении фактической погоды от прогноза, подсчёт оправдываемости прогнозов по элементам и в целом;
- система обработки, анализа и отображения авиаметеорологической информации для применения провайдерами метеорологической информации.

Рекомендуем: Доставка суши и пиццы в донецке domaed.com.

Погода Рудня - сегодня

Время (UTC), дата Ветер
(°,м/с) 
Видим.   Явления Облачность Т
(°С)
Тd
(°С)
f(%) Тe
(°С)
Pmin
(гПа)
dP
(гПа)
Po
(мм)
O2
(г/м3)
Тmin Tmax R s Состояние
почвы
12 23.02.17 190 (Ю) 10 км    10/10 600 м 
[Sc]
+2.5 -1.7 74 1001.4  -2.7  740  296           
15 23.02.17 180 (Ю) 4{12}  10 км  слаб. снег  10/10 600 м 
[St]
+0.9 -0.5 90 -1  997.5  -3.8  737  296    +3.3  0.0     
18 23.02.17 190 (Ю) 5-11{11}  4000 м  слаб. снег  10/10 600 м 
[Frnb]
+1 -0.5 90 -2  994  -3.5  735  295           
21 23.02.17 270 (З) 5-10{11}  10 км  слаб. снег  10/10 600 м 
[Frnb]
+1.2 -0.3 90 -2  994  735  295           
00 24.02.17 280 (З) 6-12{12}  10 км  {снег}  10/10 600 м 
[St]
+1.5 -1.8 79 -2  996.9  2.9  737  295           
03 24.02.17 280 (З) 4{12}  10 км    10/10 600 м 
[St]
+1.4 -1 84 -1  1000.3  2.9  739  296  +0.8    25  равномерный
мокрый или
старый снег
100% 
06 24.02.17 270 (З) 4{11}  10 км    10/10 600 м 
[St]
+1.6 -0.6 85 -1  1003.6  3.3  742  297           
09 24.02.17 270 (З) 4{10}  10 км    8/4 600 м средняя 
[Sc|Ac trans]
+4.1 -0.2 74 +2  1005.1  1.6  743  295           
12 24.02.17 240 (ЮЗ) 10 км    9/4 600 м средняя 
[Sc|Ac trans]
+3.3 -0.7 75 +2  1006  0.9  744  296           
15 24.02.17 210 (ЮЗ) 10 км    10/10 600 м 
[St]
+2.2 -0.9 80 +2  1005.8  -0.3  744  297    +4.5       
18 24.02.17 190 (Ю) 4{11}  10 км    10/10 600 м 
[St]
+2.4 +0.4 87 1003.9  -1.9  742  296           
21 24.02.17 210 (ЮЗ) 4{13}  10 км    10/10 600 м 
[St]
+3.5 +2.3 92 +2  1002.7  -1.9  741  295           
00 25.02.17 250 (З) 3{11}  10 км    10/10 600 м 
[St]
+3.7 +2 89 +2  1002.8  0.2  741  294           
03 25.02.17 290 (З) 2{12}  10 км    10/10 600 м 
[St]
+2.8 +1.8 93 +2  1003.5  0.7  742  296  +1.7      14  равномерный
мокрый или
старый снег
100% 
06 25.02.17 240 (ЮЗ) 4000 м  дымка  10/10 600 м 
[St]
+3 +2.1 94 +2  1004.3  0.8  743  296           
09 25.02.17 250 (З) 10 км    10/10 600 м 
[St]
+3.5 +2 90 +2  1004.5  0.2  743  295           
12 25.02.17 240 (ЮЗ) 10 км    10/10 600 м 
[St]
+3.3 +1.1 85 +2  1004.1  -0.4  742  295           
15 25.02.17 250 (З) 10 км  слаб. дождь  10/10 300 м 
[Frnb]
+1.8 +0.4 90 1003.9  -0.3  742  297    +4.2  0.7     
18 25.02.17 310 (СЗ) 4000 м  слаб. снег{дождь}  10/10 300 м 
[Frnb]
-0.2 -1 94 -3  1004.5  0.5  743  299           
21 25.02.17 300 (СЗ) 3{11}  10 км  в посл. час снег  6/6 600 м 
[Sc]
-1.8 -2.7 94 -4  1006.6  744  302           
00 26.02.17 290 (З) 10 км  {снег}  ясно 
-3.5 -5.1 89 -6  1009.2  2.5  746  305           
03 26.02.17 270 (З) 10 км    ясно 
-4.9 -6.7 87 -8  1011.1  1.8  747  307  -4.9    12  равномерный
сухой снег
100% 
06 26.02.17 270 (З) 10 км    ясно 
-3.1 -6 80 -6  1013.3  2.2  749  306  -5.4         
09 26.02.17 270 (З) 5-10{11}  10 км    8/8 600 м 
[St]
-1.6 -5.4 75 -5  1014.3  1.1  750  304           
12 26.02.17 270 (З) 4{11}  10 км    10/10 600 м 
[St]
-1.1 -5 75 -4  1015.2  0.9  750  304           
Время (UTC), дата Ветер
(°,м/с) 
Видим.   Явления Облачность Т
(°С)
Тd
(°С)
f(%) Тe
(°С)
Pmin
(гПа)
dP
(гПа)
Po
(мм)
O2
(г/м3)
Тmin Tmax R s Состояние
почвы

Для получения пояснительной информации подведите курсор к названию столбца.

ПОГОДА Рудня - архив

Всё, что Вы хотите узнать о погоде Рудня - удобно и подробно!

Выберите нужную дату (начиная с 1 января 2015* года) и нажмите кнопку "Найти".
Будут отображены архивные сводки погоды по пункту Рудня, начиная с указанной даты.


Отображать данные в формате CSV (для использования в таблицах Excel)


Внимание! Наш архив погоды предназначен исключительно для личного некоммерческого использования в познавательных целях. Если Вам необходимы официальные справки о состоянии погоды (для производственных, юридических, коммерческих и т.п. целей), обращайтесь в органы Росгидромета.

*Примечание: данная дата относится к архиву по метеостанциям СССР (Россия, СНГ, Балтия).
Архив по метеостанциям Зарубежной Европы и Азии (кроме Китая) хранится 10 дней, по другим регионам земного шара (Китай, Африка, Америка, Австралия, Океания) - 1 день.

Рудня - район местоположения метеостанции


Название, широта, долгота, высота метеостанции:
Рудня 50.8°ш. 44.6°д. 114 м над ур. моря [Российская Федерация]

Дополнительная информация

В oтличие oт бoльшинства пoгoдных сайтoв мы публикуем пoдрoбную метеoинфoрмацию в детальнoм прoфессиoнальнoм фoрмате.

Характеристики температуры и влажнoсти вoздуха измеряются на высoте 2 м в тени вдали oт зданий и деревьев.
Скoрoсть ветра измеряется на высoте 10 м (на урoвне рoста челoвека скoрoсть ветра ниже в 1.5-2 раза). Если метеoстанция нахoдится в гoрoде или в лесу, тo скoрoсть ветра занижена на 2-4 м/с пo сравнению с oткрытым местoм. Скoрoсть ветра над акватoриями крупных рек и oзёр, а также на вершинах хoлмoв на 2-5 м/с выше, чем в oбычных услoвиях.
Атмoсфернoе давление в разных тoчках местнoсти мoжет значительнo oтличаться oт давления на метеoстанции, в зависимoсти oт услoвий рельефа (при пoдъёме на 10 м давление пoнижается примернo на 1 мм рт.ст.).